Location: Newark
(43.0000°N, 1.6781°W)
Time: 10:44:03
(UTC+00:00)

Explorer 7 - Pass Details

Date: 27 April 2021
Orbit: 484 x 677 km, 50.3° (Epoch: 07 May)

Event Time Altitude Azimuth Distance (km) Brightness Sun altitude
Rises 17:42:08 0° 244° (WSW) 2,555 11.3 13.6°
Reaches altitude 10° 17:44:16 10° 247° (WSW) 1,691 10.5 13.2°
Maximum altitude 17:48:04 73° 332° (NNW) 538 7.2 12.5°
Drops below altitude 10° 17:52:06 10° 58° (ENE) 1,782 9.0 11.8°
Sets 17:54:24 0° 60° (ENE) 2,708 9.9 11.3°
